OpenBCM V1.08-5-g2f4a (Linux)

Packet Radio Mailbox

IZ3LSV

[San Dona' di P. JN]

 Login: GUEST





  
I0OJJ  > KEPS     30.09.25 01:45l 313 Lines 14851 Bytes #146 (0) @ AMSAT
BID : ORB25273.1
Read: GUEST
Subj: 2Line Orbital Elements 25273.AMSAT
Path: IZ3LSV<IK6IHL<IK7NXU<HB9ON<DK0WUE<PD0LPM<IR0AAB<I0OJJ
Sent: 250930/0025z @:I0OJJ.ITA.EU [Rome] obcm1.08-11-2-gbfe9
From: I0OJJ @ I0OJJ.ITA.EU (Gustavo)
To:   KEPS @ AMSAT
X-Info: This message was generated automatically


QST de W1STR

AMSAT Orbital Elements for Amateur Satellites in TLE Format
From Orbital Analysis Office
New England Sci-Tech STEM Education Center
Natick MA September 30, 2025
To all radio amateurs


These element sets describe the orbits of various satellites 
in use by the amateur radio community. For details see:
www.amsat.org/keplerian-elements-formats/

A daily update of element sets is available at:
www.amsat.org/tle/daily-bulletin.txt
or without bulletin text:
www.amsat.org/tle/dailytle.txt


AO-07
1 07530U 74089B   25272.61383075 -.00000034  00000-0  77067-4 0  9993
2 07530 101.9984 278.0878 0011913 268.8587 202.5539 12.53691923327861
UO-11
1 14781U 84021B   25272.71849420  .00004416  00000-0  46632-3 0  9998
2 14781  97.7686 236.9656 0006951 337.8800  22.2117 14.89747441218334
AO-27
1 22825U 93061C   25272.73513211  .00000282  00000-0  12451-3 0  9997
2 22825  98.7249 334.7883 0009132 139.2857 220.9009 14.30835960669750
FO-29
1 24278U 96046B   25272.61734396  .00000041  00000-0  75397-4 0  9995
2 24278  98.5557 151.6754 0350755  52.3653 310.8775 13.53255133437929
NOAA-15
1 25338U 98030A   25272.71806426  .00000336  00000-0  15543-3 0  9996
2 25338  98.5306 295.1272 0010897  36.4073 323.7848 14.27025017424149
GO-32
1 25397U 98043D   25271.89443412  .00000230  00000-0  11981-3 0  9990
2 25397  98.9837 253.4032 0000419 203.9051 156.2107 14.24344290414133
ISS
1 25544U 98067A   25272.82296167  .00017460  00000-0  31852-3 0  9999
2 25544  51.6320 148.4464 0001020 175.1481 184.9518 15.49520728531390
NO-44
1 26931U 01043C   25272.20426132  .00000466  00000-0  20504-3 0  9997
2 26931  67.0511 199.2193 0007099 274.4777  85.5513 14.31790472253083
SO-50
1 27607U 02058C   25272.24951269  .00004183  00000-0  52383-3 0  9993
2 27607  64.5535 215.7491 0067303 310.7317  48.7955 14.81976298225778
CO-55
1 27844U 03031E   25271.90575362  .00000693  00000-0  32046-3 0  9992
2 27844  98.6789 278.7623 0008807 219.3562 140.6977 14.24083299154488
CO-57
1 27848U 03031J   25271.48481153  .00000604  00000-0  28539-3 0  9997
2 27848  98.6819 278.2678 0008495 240.1012 119.9323 14.23405204154146
RS-22
1 27939U 03042A   25272.80533458  .00002756  00000-0  44058-3 0  9997
2 27939  98.3378  85.0582 0011758  20.0482 103.6699 14.72644747177214
CO-58
1 28895U 05043F   25272.26365126  .00004026  00000-0  65733-3 0  9992
2 28895  98.2657  58.1374 0013560 316.2281  43.7850 14.71421897 63366
CO-65
1 32785U 08021C   25272.90532132  .00012328  00000-0  85608-3 0  9995
2 32785  97.7989 245.0600 0009419 178.2563 181.8698 15.05667939945974
CO-66
1 32791U 08021J   25271.89579866  .00029529  00000-0  13047-2 0  9992
2 32791  97.7391 254.6912 0005756 121.5753 238.6045 15.21661502947407
RS-30
1 32953U 08025A   25272.83111553  .00000019  00000-0  65612-4 0  9996
2 32953  82.5054 157.3907 0019133 157.4609 202.7315 12.43168547787349
NOAA-19
1 33591U 09005A   25272.76148230  .00000157  00000-0  10772-3 0  9997
2 33591  98.9864 338.0393 0014482  50.1069 310.1374 14.13412758857696
SRMSAT
1 37841U 11058D   25272.01912266  .00000598  00000-0  18098-3 0  9994
2 37841  19.9712 200.1660 0011764 209.9425 239.5407 14.11471480720874
ZACUBE-1
1 39417U 13066B   25272.87124834  .00013761  00000-0  11527-2 0  9991
2 39417  97.7912 229.4273 0044110  38.2764 322.1574 14.97774159641717
Delfi-N3xt
1 39428U 13066N   25272.65087270  .00023484  00000-0  22854-2 0  9999
2 39428  97.8281 189.1107 0082090 352.7102   7.2915 14.89987305635753
GOMX-1
1 39430U 13066Q   25272.82796275  .00004909  00000-0  75800-3 0  9994
2 39430  97.6700 124.5682 0130986 192.4278 167.3688 14.68093563631697
LO-74
1 39440U 13066AA  25272.26568335  .00008572  00000-0  84552-3 0  9991
2 39440  97.8575 216.1534 0061235 169.5061 190.7452 14.90825283638074
AO-73
1 39444U 13066AE  25271.85970465  .00019257  00000-0  13706-2 0  9994
2 39444  97.7932 234.3709 0041143  13.4459 346.7852 15.03982060640302
DTUSAT-2
1 40030U 14033W   25272.89018419  .00018751  00000-0  11579-2 0  9993
2 40030  98.0683 250.3301 0010344  49.8006 310.4126 15.09902149613339
EO-80
1 40032U 14033Y   25271.91042947  .00015142  00000-0  93546-3 0  9996
2 40032  98.0559 248.7980 0007984   0.2317 359.8913 15.09954820613164
LILACSAT-2
1 40908U 15049K   25272.88092233  .00029443  00000-0  69684-3 0  9991
2 40908  97.5018 296.1133 0010628 112.9517 247.2852 15.41691449555516
IO-86
1 40931U 15052B   25151.18580175  .00001241  00000-0  78118-4 0  9996
2 40931   6.0006  24.0987 0012733 338.8432  21.1169 14.78805930523159
Horyu-4
1 41340U 16012D   25272.85040654  .00059241  00000-0  13037-2 0  9999
2 41340  30.9947  94.1817 0004301 142.0954 217.9996 15.42675136530101
Lapan A3
1 41603U 16040E   25272.84507594  .00008374  00000-0  28436-3 0  9993
2 41603  97.1431 273.1310 0009435 219.6662 140.3891 15.30691947514956
CAS-2T
1 41847U 16066G   25272.75663015  .00003687  00000-0  53008-3 0  9997
2 41847  98.4107 346.2150 0344777 198.8532 159.9630 14.43785372467200
CAS-4B
1 42759U 17034B   25272.59773862  .00525962  11694-3  14150-2 0  9993
2 42759  42.9993   4.4464 0022295   7.1344 352.9845 15.93097387460240
CAS-4A
1 42761U 17034D   25272.27992583  .00669962  20535-3  13015-2 0  9996
2 42761  43.0017   1.2956 0021990  11.2321 348.9044 15.98992253460231
TechnoSat
1 42829U 17042E   25272.69508444  .00007862  00000-0  59446-3 0  9991
2 42829  97.3997  76.1626 0016953 263.3867  96.5429 15.02494371447554
AO-91
1 43017U 17073E   25272.57943394  .00018433  00000-0  90092-3 0  9997
2 43017  97.5065 140.5484 0167988 144.0401 217.2271 15.06648712426068
S-Net D
1 43186U 18014G   25272.71533676  .00012053  00000-0  68535-3 0  9993
2 43186  97.5485 174.4749 0008431 185.2878 174.8265 15.12996455419322
S-Net B
1 43187U 18014H   25272.65610554  .00011849  00000-0  67419-3 0  9990
2 43187  97.5490 174.3943 0009065 182.2538 177.8653 15.12972432419310
S-Net A
1 43188U 18014J   25272.71532512  .00012363  00000-0  70266-3 0  9991
2 43188  97.5500 174.6181 0009049 182.4524 177.6664 15.13002290419327
S-Net C
1 43189U 18014K   25272.65879174  .00012130  00000-0  68991-3 0  9997
2 43189  97.5519 174.5952 0010751 177.0376 183.0920 15.12967387417869
Ten-Koh
1 43677U 18084G   25272.80450832  .00005863  00000-0  46248-3 0  9995
2 43677  98.0780  89.5108 0007114 238.0188 122.0344 15.01127993377073
PO-101
1 43678U 18084H   25272.83209546  .00005451  00000-0  45648-3 0  9999
2 43678  98.1070  93.3254 0007909 270.8072  89.2243 14.98857175377192
QO-100
1 43700U 18090A   25272.07891912  .00000148  00000-0  00000-0 0  9990
2 43700   0.0166 117.3330 0001474 102.8060 202.2031  1.00274691 25052
MinXSS-2
1 43758U 18099A   25272.75370529  .00042449  00000-0  14721-2 0  9990
2 43758  97.4899 339.3511 0012109 119.5489 240.6960 15.29614132374094
AO-95
1 43770U 18099N   25272.10543636  .00020852  00000-0  98628-3 0  9997
2 43770  97.4790 329.0307 0010458 176.2378 183.8938 15.19353767373476
SNUSat 2
1 43782U 18099AA  25272.59908164  .00017891  00000-0  92302-3 0  9996
2 43782  97.4474 325.3292 0013080 122.7998 237.4497 15.16322089373463
SnugLite
1 43784U 18099AC  25272.70330013  .00024221  00000-0  11329-2 0  9997
2 43784  97.4286 325.2481 0004755 118.0226 242.1490 15.19744685373656
ITASat 1
1 43786U 18099AE  25272.73599023  .00015511  00000-0  84494-3 0  9996
2 43786  97.4445 324.6277 0014285 171.9567 188.1897 15.14412804373421
EAGLET 1
1 43790U 18099AJ  25272.64674957  .00009738  00000-0  60129-3 0  9994
2 43790  97.4634 324.0955 0012441 158.3970 201.7787 15.10028890372975
ESEO
1 43792U 18099AL  25272.59650753  .00004519  00000-0  33914-3 0  9992
2 43792  97.4375 315.7747 0013495 137.9311 222.2953 15.03045140372643
JO-97
1 43803U 18099AX  25272.61427788  .00029527  00000-0  12326-2 0  9997
2 43803  97.4537 330.8031 0008543 111.8863 248.3283 15.23573459373817
Suomi 100
1 43804U 18099AY  25272.09936690  .00021520  00000-0  97983-3 0  9995
2 43804  97.4604 329.2384 0013158 117.4902 242.7672 15.20631551373635
ISAT
1 43879U 18111D   25272.77516752  .00058597  00000-0  17191-2 0  9996
2 43879  97.5865 189.9395 0009478 142.8156 217.3745 15.34921070370878
UWE-4
1 43880U 18111E   25272.75985733  .00040734  00000-0  14129-2 0  9997
2 43880  97.5810 187.5312 0011596 161.6441 198.5219 15.29622441370750
Sparrow
1 43881U 18111F   25272.26575821  .00053643  00000-0  15002-2 0  9991
2 43881  97.6035 192.7670 0006135 169.0047 191.1331 15.36473421370904
Prox-1
1 44339U 19036A   25272.59886388  .00025817  00000-0  31062-2 0  9992
2 44339  23.9972  44.7480 0006127 273.7317  86.2480 14.82437053334645
Taurus 1
1 44530U 19059C   25272.83099455  .00021361  00000-0  37765-2 0  9994
2 44530  98.6193  57.7358 0009118  49.7737 310.4262 14.67369540320395
Duchifat 3
1 44854U 19089C   25272.57568815  .00179528  00000-0  20836-2 0  9998
2 44854  36.9387 357.4103 0006077 115.4647 244.6743 15.60246095320423
TO-108
1 44881U 19093C   25272.83156251  .00002586  00000-0  30282-3 0  9995
2 44881  97.7832 346.0975 0012802 218.3692 141.6614 14.85838448312744
FloripaSat 1
1 44885U 19093G   25272.82421760  .00015396  00000-0  12471-2 0  9990
2 44885  97.8122   0.7264 0009721 193.9685 166.1270 14.99774498313562
RS-44
1 44909U 19096E   25272.74349034  .00000021  00000-0  37203-4 0  9995
2 44909  82.5233 152.7809 0218201  33.5267 327.9428 12.79743996269035
UPMSat 2
1 46276U 20061E   25272.78172815  .00696452  22999-3  12273-2 0  9994
2 46276  97.2275 352.6232 0004275 245.9413 114.1420 16.02027699283174
SALSAT
1 46495U 20068K   25272.73372387  .00017512  00000-0  71401-3 0  9994
2 46495  97.8733 256.1395 0012745 126.8607 233.3799 15.24446467275606
